FW3961 Weather Reports


Display with metric or nautical units.
time (UTC)temp
F
wind
direction
speed
MPH
gust
MPH
rain 1hr
in
rain 24hr
in
rain mn
in
humidity
%
barometer
mb
20260902090429 57 123 1.0 3.0 0.00 0.01 0.00 86 1012.0
20260902085923 57 123 1.0 3.0 0.00 0.01 0.00 86 1012.1
20260902085416 57 123 2.0 3.0 0.00 0.01 0.00 86 1012.1
20260902084910 57 123 2.0 3.0 0.00 0.01 0.00 86 1012.2
20260902084906 57 123 2.0 3.0 0.00 0.01 0.00 86 1012.3
20260902083859 57 123 2.0 3.0 0.00 0.01 0.00 85 1012.2
20260902083352 57 123 2.0 3.0 0.00 0.01 0.00 85 1012.3
20260902082847 58 123 2.0 4.0 0.00 0.01 0.00 84 1012.3
20260902082340 58 123 2.0 4.0 0.00 0.01 0.00 83 1012.4
20260902081835 58 127 2.0 4.0 0.00 0.01 0.00 82 1012.4
20260902081328 58 127 1.0 4.0 0.00 0.01 0.00 82 1012.6
20260902080824 59 123 1.0 2.0 0.00 0.01 0.00 82 1012.5
20260902080648 59 123 1.0 2.0 0.00 0.01 0.00 82 1012.5
20260902080543 59 123 1.0 2.0 0.00 0.01 0.00 82 1012.5
20260902075306 59 123 1.0 2.0 0.00 0.01 0.00 82 1012.4
20260902074759 59 124 1.0 4.0 0.00 0.01 0.00 82 1012.5
20260902074755 59 124 2.0 4.0 0.00 0.01 0.00 81 1012.5
20260902073747 59 167 2.0 4.0 0.00 0.01 0.00 81 1012.5
20260902073240 59 168 1.0 4.0 0.00 0.01 0.00 81 1012.6
20260902072736 59 168 1.0 3.0 0.00 0.01 0.00 81 1012.6
20260902072228 59 168 1.0 3.0 0.00 0.01 0.00 80 1012.6
20260902071723 59 243 0.0 3.0 0.00 0.01 0.00 80 1012.5
20260902071221 60 243 1.0 3.0 0.00 0.01 0.00 80 1012.6
20260902070720 60 244 1.0 6.0 0.00 0.01 0.00 80 1012.7
20260902070221 60 240 1.0 6.0 0.00 0.01 0.00 79 1012.8
20260902065720 60 207 1.0 5.0 0.00 0.01 0.01 79 1013.0
20260902065220 60 261 2.0 6.0 0.00 0.01 0.01 79 1013.0
20260902064718 60 288 2.0 7.0 0.00 0.01 0.01 80 1013.0
20260902064222 60 219 1.0 7.0 0.00 0.01 0.01 80 1013.0
20260902063723 60 206 0.0 3.0 0.00 0.01 0.01 81 1013.0
20260902063718 60 258 1.0 3.0 0.00 0.01 0.01 81 1013.0
20260902062713 60 209 1.0 3.0 0.00 0.01 0.01 81 1013.1
20260902062213 60 261 1.0 3.0 0.00 0.01 0.01 82 1013.0
20260902061714 60 177 1.0 5.0 0.00 0.01 0.01 82 1013.1
20260902061213 60 198 1.0 5.0 0.00 0.01 0.01 83 1013.2
20260902060713 60 236 0.0 4.0 0.00 0.01 0.01 83 1013.2
20260902060214 60 134 0.0 4.0 0.00 0.01 0.01 83 1013.3
20260902055710 60 128 0.0 0.0 0.00 0.01 0.01 84 1013.3
20260902055209 60 140 0.0 0.0 0.00 0.01 0.01 83 1013.4
20260902054709 60 140 0.0 1.0 0.00 0.01 0.01 83 1013.4
20260902054215 60 140 0.0 2.0 0.00 0.01 0.01 83 1013.5
20260902054209 60 140 0.0 2.0 0.00 0.01 0.01 83 1013.5
20260902053209 60 140 0.0 2.0 0.00 0.01 0.01 83 1013.4
20260902052711 60 140 0.0 2.0 0.00 0.01 0.01 83 1013.6
20260902052209 60 140 0.0 2.0 0.00 0.01 0.01 83 1013.5
20260902051710 60 140 0.0 3.0 0.00 0.01 0.01 84 1013.5
20260902051211 60 140 1.0 3.0 0.00 0.01 0.01 83 1013.5
20260902050709 60 140 2.0 5.0 0.00 0.01 0.01 84 1013.5
20260902050210 60 141 2.0 5.0 0.00 0.01 0.01 83 1013.6
20260902045709 60 159 2.0 5.0 0.00 0.01 0.01 84 1013.5
20260902045209 60 162 2.0 4.0 0.00 0.01 0.01 84 1013.5
20260902044710 60 162 2.0 4.0 0.00 0.01 0.01 83 1013.5
20260902044215 60 178 2.0 3.0 0.00 0.01 0.01 83 1013.4
20260902044211 60 164 2.0 4.0 0.00 0.01 0.01 83 1013.5
20260902043208 60 215 1.0 2.0 0.00 0.01 0.01 83 1013.4
20260902042703 61 216 1.0 2.0 0.00 0.01 0.01 82 1013.5
20260902042659 61 216 0.0 2.0 0.00 0.01 0.01 82 1013.4
20260902041651 61 216 0.0 2.0 0.00 0.01 0.01 81 1013.5
20260902041515 61 216 0.0 2.0 0.00 0.01 0.01 81 1013.4
20260902041411 61 217 0.0 2.0 0.00 0.01 0.01 81 1013.4
20260902040133 61 217 1.0 2.0 0.00 0.01 0.01 81 1013.4
20260902035627 61 217 0.0 2.0 0.00 0.01 0.01 81 1013.4
20260902035123 61 217 0.0 2.0 0.00 0.01 0.01 81 1013.4
20260902034615 61 217 0.0 2.0 0.00 0.01 0.01 81 1013.5
20260902034611 61 219 0.0 1.0 0.00 0.01 0.01 81 1013.5
20260902033603 61 219 0.0 3.0 0.00 0.01 0.01 81 1013.4
20260902033056 61 219 1.0 3.0 0.00 0.01 0.01 80 1013.4
20260902032551 61 227 1.0 3.0 0.00 0.01 0.01 80 1013.4
20260902032044 61 229 1.0 3.0 0.00 0.01 0.01 80 1013.5
20260902031538 61 196 1.0 3.0 0.00 0.01 0.01 80 1013.5
20260902031033 61 229 1.0 3.0 0.00 0.01 0.01 80 1013.5
20260902030526 61 237 1.0 3.0 0.00 0.01 0.01 80 1013.5
20260902030020 62 277 1.0 4.0 0.00 0.01 0.01 79 1013.5
20260902025513 62 242 1.0 4.0 0.00 0.01 0.01 79 1013.4
20260902025007 62 227 1.0 6.0 0.00 0.01 0.01 79 1013.3
20260902025003 62 211 1.0 6.0 0.00 0.01 0.01 78 1013.3
20260902023955 62 214 1.0 3.0 0.00 0.01 0.01 78 1013.2
20260902023450 62 222 1.0 6.0 0.00 0.01 0.01 78 1013.2
20260902022942 62 243 1.0 6.0 0.00 0.01 0.01 78 1013.2
20260902022437 62 282 1.0 4.0 0.00 0.01 0.01 78 1013.2
20260902021932 62 200 1.0 4.0 0.00 0.01 0.01 78 1013.3
20260902021928 62 205 1.0 4.0 0.00 0.01 0.01 78 1013.3
20260902020919 62 204 1.0 4.0 0.00 0.01 0.01 78 1013.3
20260902020413 62 234 2.0 4.0 0.00 0.01 0.01 78 1013.3
20260902015907 62 207 1.0 4.0 0.00 0.01 0.01 78 1013.3
20260902015403 62 221 1.0 4.0 0.00 0.01 0.01 78 1013.3
20260902014854 62 191 1.0 4.0 0.00 0.01 0.01 78 1013.3
20260902014349 62 217 1.0 5.0 0.00 0.01 0.01 78 1013.2
20260902013843 62 200 1.0 5.0 0.00 0.01 0.01 78 1013.2
20260902013838 62 264 1.0 3.0 0.00 0.01 0.01 78 1013.2
20260902012831 62 234 0.0 3.0 0.00 0.01 0.01 78 1013.2
20260902012324 62 230 1.0 3.0 0.00 0.01 0.01 78 1013.3
20260902011820 62 193 1.0 3.0 0.00 0.01 0.01 78 1013.3
20260902011312 62 197 1.0 4.0 0.00 0.01 0.01 78 1013.2
20260902010807 62 188 2.0 9.0 0.00 0.01 0.01 78 1013.1
20260902010301 63 237 2.0 9.0 0.00 0.01 0.01 77 1013.2
20260902005754 63 191 2.0 9.0 0.00 0.01 0.01 77 1013.2
20260902005249 63 205 3.0 10.0 0.00 0.01 0.01 76 1013.0
20260902004742 64 213 3.0 10.0 0.00 0.01 0.01 75 1013.0
20260902004237 64 186 3.0 9.0 0.00 0.01 0.01 74 1013.0
20260902004233 64 104 3.0 11.0 0.00 0.01 0.01 73 1013.0
20260902003229 66 0 2.0 6.0 0.00 0.01 0.01 71 1012.8
20260902003225 65 200 3.0 11.0 0.00 0.01 0.01 72 1012.8
20260902002227 66 281 2.0 4.0 0.00 0.01 0.01 69 1012.7
20260902001729 66 200 2.0 4.0 0.00 0.01 0.01 69 1012.6
20260902001226 66 225 2.0 4.0 0.00 0.01 0.01 68 1012.6
20260902000721 66 202 2.0 4.0 0.00 0.01 0.01 68 1012.5
20260902000221 66 211 1.0 4.0 0.00 0.01 0.01 68 1012.5
20260901235717 66 231 2.0 5.0 0.00 0.01 0.01 68 1012.5
20260901235218 67 220 2.0 8.0 0.00 0.01 0.01 67 1012.5
20260901234716 67 233 2.0 8.0 0.00 0.01 0.01 67 1012.5
20260901234217 67 203 2.0 8.0 0.00 0.01 0.01 67 1012.5
20260901233717 67 139 2.0 8.0 0.00 0.01 0.01 67 1012.5
20260901233217 67 246 2.0 5.0 0.00 0.01 0.01 68 1012.6
20260901232716 67 217 2.0 5.0 0.00 0.01 0.01 67 1012.6
20260901232217 67 202 2.0 7.0 0.00 0.01 0.01 67 1012.5
20260901231717 67 232 2.0 7.0 0.00 0.01 0.01 67 1012.7
20260901231216 67 252 2.0 6.0 0.00 0.01 0.01 68 1012.7
20260901230717 67 191 2.0 8.0 0.00 0.01 0.01 68 1012.7
20260901230217 67 216 3.0 8.0 0.00 0.01 0.01 68 1012.7
20260901225716 67 228 1.0 6.0 0.00 0.01 0.01 68 1012.7
20260901225216 67 201 1.0 4.0 0.00 0.01 0.01 69 1012.7
20260901224717 67 221 2.0 5.0 0.00 0.01 0.01 70 1012.7
20260901224216 67 215 2.0 6.0 0.00 0.01 0.01 69 1012.7
20260901223721 67 250 1.0 8.0 0.00 0.01 0.01 70 1012.6
20260901223716 67 228 1.0 6.0 0.00 0.01 0.01 69 1012.8
20260901222717 67 251 1.0 8.0 0.00 0.01 0.01 69 1012.7
20260901222216 67 187 1.0 3.0 0.00 0.01 0.01 70 1012.8
20260901221717 66 198 1.0 5.0 0.00 0.01 0.01 70 1012.7
20260901221216 66 248 1.0 5.0 0.00 0.01 0.01 70 1012.7
20260901220721 66 148 1.0 4.0 0.00 0.01 0.01 69 1012.8
20260901220717 66 245 1.0 4.0 0.00 0.01 0.01 70 1012.7
20260901215717 66 139 1.0 4.0 0.00 0.01 0.01 69 1012.8
20260901215217 67 159 1.0 4.0 0.00 0.01 0.01 69 1012.8
20260901214722 67 183 1.0 4.0 0.00 0.01 0.01 68 1012.7
20260901214716 67 206 1.0 4.0 0.00 0.01 0.01 69 1012.6
20260901214216 67 217 1.0 4.0 0.00 0.01 0.01 69 1012.6
20260901213215 67 123 2.0 7.0 0.00 0.01 0.01 69 1012.6
20260901212711 67 73 2.0 7.0 0.00 0.01 0.01 68 1012.5
20260901212206 67 50 2.0 8.0 0.00 0.01 0.01 68 1012.7
20260901211700 67 182 2.0 9.0 0.00 0.01 0.01 68 1012.7
20260901211656 67 227 2.0 9.0 0.00 0.01 0.01 69 1012.6
20260901210646 67 63 3.0 9.0 0.00 0.01 0.01 69 1012.7
20260901210143 66 215 3.0 9.0 0.00 0.01 0.01 69 1012.6
20260901205642 66 208 2.0 7.0 0.00 0.01 0.01 70 1012.5
20260901205142 66 298 2.0 7.0 0.00 0.01 0.01 71 1012.6
20260901204645 66 194 1.0 4.0 0.00 0.01 0.01 71 1012.6
20260901204142 66 209 1.0 7.0 0.00 0.01 0.01 71 1012.6
20260901204017 66 180 1.0 5.0 0.00 0.01 0.01 72 1012.6
20260901203909 66 139 1.0 7.0 0.00 0.01 0.01 71 1012.6
20260901202638 66 137 1.0 4.0 0.00 0.01 0.01 72 1012.6
20260901202139 66 172 1.0 4.0 0.00 0.01 0.01 72 1012.7
20260901201638 66 113 2.0 7.0 0.00 0.01 0.01 72 1012.7
20260901201138 65 76 1.0 7.0 0.00 0.01 0.01 73 1012.7
20260901200638 65 124 1.0 3.0 0.00 0.01 0.01 75 1012.7
20260901200136 65 124 1.0 4.0 0.00 0.01 0.01 76 1012.8
20260901195635 65 124 2.0 4.0 0.00 0.01 0.01 76 1012.7
20260901195139 64 130 2.0 5.0 0.00 0.01 0.01 77 1012.8
20260901194638 64 126 2.0 8.0 0.00 0.01 0.01 77 1013.1
20260901194634 64 131 2.0 8.0 0.00 0.01 0.01 76 1013.0
20260901193634 64 128 2.0 5.0 0.00 0.01 0.01 76 1013.2
20260901193630 64 133 2.0 5.0 0.00 0.01 0.01 77 1013.1
20260901192622 64 131 2.0 5.0 0.00 0.01 0.01 77 1013.2
20260901192117 65 127 3.0 8.0 0.00 0.01 0.01 77 1013.2
20260901191609 65 128 3.0 8.0 0.00 0.01 0.01 77 1013.2
20260901191103 64 134 2.0 7.0 0.00 0.01 0.01 78 1013.3
20260901190558 64 103 2.0 7.0 0.00 0.01 0.01 79 1013.3
20260901190052 63 129 3.0 6.0 0.00 0.01 0.01 79 1013.4
20260901185545 63 128 2.0 5.0 0.00 0.01 0.01 80 1013.5
20260901185040 63 116 2.0 5.0 0.00 0.01 0.01 81 1013.5
20260901185035 63 157 2.0 7.0 0.00 0.01 0.01 81 1013.5
20260901184028 63 132 1.0 7.0 0.00 0.01 0.01 80 1013.5
20260901183522 63 198 1.0 5.0 0.00 0.01 0.01 82 1013.5
20260901183016 63 200 1.0 5.0 0.00 0.01 0.01 81 1013.5
20260901183012 63 111 1.0 4.0 0.00 0.01 0.01 82 1013.6
20260901182004 63 221 0.0 2.0 0.00 0.01 0.01 82 1013.6
20260901181458 63 224 1.0 5.0 0.00 0.01 0.01 83 1013.7
20260901180952 62 211 2.0 5.0 0.00 0.01 0.01 83 1013.7
20260901180446 62 222 1.0 5.0 0.00 0.01 0.01 84 1013.7
20260901175940 62 102 1.0 4.0 0.00 0.01 0.01 86 1013.7
20260901175435 61 230 1.0 3.0 0.00 0.01 0.01 87 1013.7
20260901174927 61 171 1.0 2.0 0.00 0.01 0.01 87 1013.7
20260901174421 61 170 1.0 3.0 0.00 0.01 0.01 87 1013.7
20260901173916 61 172 1.0 3.0 0.00 0.01 0.01 88 1013.7
20260901173410 61 132 1.0 3.0 0.00 0.01 0.01 88 1013.6
20260901172904 61 208 0.0 2.0 0.00 0.01 0.01 89 1013.7
20260901172400 60 208 0.0 1.0 0.00 0.01 0.01 89 1013.7
20260901171852 60 207 0.0 2.0 0.00 0.01 0.01 89 1013.6
20260901171345 60 208 0.0 2.0 0.00 0.01 0.01 88 1013.5
20260901170840 60 208 1.0 4.0 0.00 0.01 0.01 88 1013.6
20260901170338 60 211 1.0 4.0 0.00 0.01 0.01 88 1013.6
20260901165842 60 224 0.0 5.0 0.00 0.01 0.01 89 1013.5
20260901165838 60 62 1.0 5.0 0.00 0.01 0.01 89 1013.5
20260901164835 61 138 0.0 1.0 0.00 0.01 0.01 90 1013.5
20260901164335 60 136 0.0 1.0 0.00 0.01 0.01 91 1013.5
20260901163841 60 135 1.0 3.0 0.01 0.01 0.01 92 1013.6
20260901163833 60 136 1.0 3.0 0.01 0.01 0.01 92 1013.6
20260901162838 60 144 1.0 3.0 0.01 0.01 0.01 92 1013.5
20260901162332 59 145 1.0 3.0 0.01 0.01 0.01 92 1013.7
20260901161830 59 145 0.0 2.0 0.01 0.01 0.01 93 1013.6
20260901161328 59 145 0.0 2.0 0.01 0.01 0.01 93 1013.7
20260901160826 58 146 0.0 2.0 0.01 0.01 0.01 93 1013.6
20260901160324 58 146 0.0 2.0 0.01 0.01 0.01 93 1013.7
20260901155823 58 146 0.0 2.0 0.01 0.01 0.01 93 1013.7
20260901155324 58 146 0.0 2.0 0.01 0.01 0.01 93 1013.7
20260901154827 58 146 0.0 2.0 0.01 0.01 0.01 93 1013.6
20260901154823 58 146 0.0 2.0 0.01 0.01 0.01 93 1013.7
20260901153821 58 146 0.0 2.0 0.00 0.00 0.00 93 1013.5
20260901153320 58 146 0.0 2.0 0.00 0.00 0.00 92 1013.6
20260901152822 57 148 0.0 2.0 0.00 0.00 0.00 92 1013.5
20260901152313 57 147 0.0 1.0 0.00 0.00 0.00 92 1013.6
20260901151807 57 147 1.0 2.0 0.00 0.00 0.00 92 1013.6
20260901151310 57 147 0.0 3.0 0.00 0.00 0.00 91 1013.4
20260901151306 57 147 1.0 3.0 0.00 0.00 0.00 92 1013.6
20260901150306 57 148 1.0 3.0 0.00 0.00 0.00 91 1013.5
20260901145806 57 148 0.0 3.0 0.00 0.00 0.00 90 1013.5
20260901145306 58 150 0.0 1.0 0.00 0.00 0.00 90 1013.4
20260901144805 58 150 0.0 1.0 0.00 0.00 0.00 90 1013.3
20260901144319 58 151 1.0 5.0 0.00 0.00 0.00 87 1013.5
20260901144305 58 149 0.0 2.0 0.00 0.00 0.00 89 1013.3
20260901143805 58 150 1.0 3.0 0.00 0.00 0.00 89 1013.3
20260901143306 58 149 1.0 3.0 0.00 0.00 0.00 88 1013.4
20260901142305 58 151 0.0 5.0 0.00 0.00 0.00 86 1013.4
20260901141801 59 180 0.0 1.0 0.00 0.00 0.00 86 1013.3
20260901141302 59 180 0.0 2.0 0.00 0.00 0.00 86 1013.1
20260901140801 59 159 1.0 2.0 0.00 0.00 0.00 85 1013.3
20260901140302 59 159 1.0 2.0 0.00 0.00 0.00 85 1013.2
20260901135805 58 159 1.0 2.0 0.00 0.00 0.00 85 1013.2
20260901135306 58 159 1.0 4.0 0.00 0.00 0.00 85 1013.2
20260901134805 58 159 1.0 4.0 0.00 0.00 0.00 85 1013.2
20260901134306 58 159 0.0 2.0 0.00 0.00 0.00 85 1013.2
20260901133800 58 159 0.0 2.0 0.00 0.00 0.00 85 1013.1
20260901133254 58 198 0.0 0.0 0.00 0.00 0.00 85 1013.0
20260901132747 58 198 0.0 0.0 0.00 0.00 0.00 85 1013.1
20260901132241 58 198 0.0 0.0 0.00 0.00 0.00 86 1013.0
20260901131738 58 198 0.0 0.0 0.00 0.00 0.00 86 1013.0
20260901131734 58 198 0.0 0.0 0.00 0.00 0.00 86 1013.0
20260901130723 58 198 0.0 0.0 0.00 0.00 0.00 86 1013.1
20260901130218 58 198 0.0 0.0 0.00 0.00 0.00 86 1013.1
20260901125711 58 198 0.0 0.0 0.00 0.00 0.00 86 1013.0
20260901125205 58 198 0.0 1.0 0.00 0.00 0.00 86 1013.0
20260901124659 58 198 0.0 1.0 0.00 0.00 0.00 86 1013.0
20260901124154 58 199 0.0 1.0 0.00 0.00 0.00 86 1013.0
20260901123647 58 199 0.0 1.0 0.00 0.00 0.00 86 1013.0
20260901123140 58 199 0.0 1.0 0.00 0.00 0.00 86 1013.0
20260901122634 58 199 0.0 1.0 0.00 0.00 0.00 86 1013.0
20260901122128 58 199 0.0 1.0 0.00 0.00 0.00 86 1013.0
20260901121624 58 199 0.0 1.0 0.00 0.00 0.00 86 1013.1
20260901121616 58 199 0.0 1.0 0.00 0.00 0.00 86 1013.0
20260901120610 58 199 0.0 1.0 0.00 0.00 0.00 86 1013.0
20260901120104 58 199 0.0 0.0 0.00 0.00 0.00 86 1013.0
20260901115557 58 199 0.0 0.0 0.00 0.00 0.00 86 1013.0
20260901115051 58 199 0.0 0.0 0.00 0.00 0.00 86 1013.0
20260901114544 58 199 0.0 1.0 0.00 0.00 0.00 86 1012.8
20260901114040 58 199 0.0 1.0 0.00 0.00 0.00 86 1012.8
20260901113533 58 199 0.0 1.0 0.00 0.00 0.00 86 1013.0
20260901113027 58 199 0.0 1.0 0.00 0.00 0.00 87 1012.8
20260901112527 58 199 0.0 1.0 0.00 0.00 0.00 87 1012.6
20260901112523 58 199 0.0 1.0 0.00 0.00 0.00 87 1012.7
20260901111509 57 199 0.0 1.0 0.00 0.00 0.00 87 1012.6
20260901111003 57 199 0.0 1.0 0.00 0.00 0.00 87 1012.6
20260901110457 57 199 0.0 1.0 0.00 0.00 0.00 88 1012.5
20260901105951 57 199 0.0 0.0 0.00 0.00 0.00 88 1012.6
20260901105445 57 199 0.0 0.0 0.00 0.00 0.00 88 1012.6
20260901104939 57 199 0.0 1.0 0.00 0.00 0.00 88 1012.6
20260901104433 57 199 0.0 1.0 0.00 0.00 0.00 88 1012.5
20260901103929 57 199 0.0 1.0 0.00 0.00 0.00 89 1012.5
20260901103424 57 200 0.0 1.0 0.00 0.00 0.00 89 1012.4
20260901103416 56 200 0.0 1.0 0.00 0.00 0.00 89 1012.3
20260901102409 56 200 0.0 1.0 0.00 0.00 0.00 89 1012.4
20260901101902 56 134 0.0 1.0 0.00 0.00 0.00 89 1012.4
20260901101401 56 134 0.0 0.0 0.00 0.00 0.00 88 1012.4
20260901101357 56 134 0.0 1.0 0.00 0.00 0.00 89 1012.5
20260901100345 56 134 0.0 0.0 0.00 0.00 0.00 88 1012.4
20260901095838 56 134 0.0 0.0 0.00 0.00 0.00 88 1012.4
20260901095333 56 134 0.0 2.0 0.00 0.00 0.00 88 1012.4
20260901094827 56 134 0.0 2.0 0.00 0.00 0.00 88 1012.4
20260901094321 56 134 1.0 3.0 0.00 0.00 0.00 88 1012.3
20260901093815 56 134 1.0 3.0 0.00 0.00 0.00 88 1012.3
20260901093309 56 133 1.0 3.0 0.00 0.00 0.00 88 1012.3
20260901092802 56 134 1.0 3.0 0.00 0.00 0.00 88 1012.3
20260901092642 56 134 1.0 3.0 0.00 0.00 0.00 88 1012.3
20260901092533 56 134 1.0 3.0 0.00 0.00 0.00 88 1012.3
20260901091302 56 134 1.0 3.0 0.00 0.00 0.00 88 1012.2
20260901090803 56 135 1.0 3.0 0.00 0.00 0.00 88 1012.2